Location: Eckley Miners' Village
(40.9930°N, 75.8630°W)
Time: 11:17:35
(UTC-04:00)

Vanguard 1 Rocket - Pass Details

Date: 16 March 2026
Orbit: 654 x 4213 km, 34.3° (Epoch: 11 April)

Event Time Altitude Azimuth Distance (km) Brightness Sun altitude
Rises 05:17:07 0° 207° (SSW) 5,050 - -22.5°
Exits shadow 05:20:24 - 196° (SSW) 4,052 10.4 -21.9°
Reaches altitude 10° 05:23:18 10° 182° (S) 3,271 10.0 -21.3°
Maximum altitude 05:26:15 12° 159° (SSE) 2,731 9.9 -20.8°
Drops below altitude 10° 05:28:45 10° 134° (SE) 2,642 10.1 -20.4°
Sets 05:32:30 0° 104° (ESE) 3,232 11.3 -19.7°
